Weather in Rusakovo

Russia / Tyumen Oblast     56°58′51″N   68°54′05″E
temp.,
°C
wind,
m/s
gust,
m/s
humid.,
%
clouds,
%
prec.,
mm/h
press.,
hPa
HPBL,
m
20 june, sun
sun2023:00+11sw2265100 0.0 100929
02:00+12sw366597 0.0 1007138
05:00+11ssw3882100 0.1 1005199
08:00+14sw61191100 0.1 1001611
11:00+15wnw7129195 2.4 999869
14:00+18nw9123979 0.5 9992791
17:00+13nw71451100 0.6 10022055
20:00+7nw71189100 0.3 10031102
21 june, mon
mon2123:00+7nw61097100 1.3 10031054
02:00+7nnw5119598 0.3 1004598
05:00+7nnw71597100 0.4 1006685
08:00+10n71494100 0.1 1010888
11:00+18nne71150100 0.1 10121835
14:00+19n7847100 0.0 10142271
17:00+16n69655 0.5 10161185
20:00+14n586036 0.3 1017919
22 june, tue
tue2223:00+11nw3968100 0.3 1018226
02:00+8nnw338695 0.0 101853
05:00+10nw258697 0.1 1018128
08:00+14nnw246387 0.0 1018601
11:00+17n354597 0.1 10172255
14:00+17nw2455100 0.4 10171922
17:00+12n2490100 1.4 1017220
20:00+11n2496100 1.9 1017119
23 june, wed
wed2323:00+9w118999 2.7 101710
02:00+8n229497 0.4 101738
05:00+8nne25935 0.4 1018103
08:00+12nne35685 0.0 1018494
11:00+17nne454157 0.0 10182188
14:00+18nne3537100 0.0 10182366
17:00+17n3549100 0.0 10181473
20:00+14se3567100 0.0 1019116
24 june, thu
thu2423:00+12s116163 0.0 101913
02:00+9wsw347265 0.0 101846
05:00+10wnw256791 0.0 1018114
08:00+16nnw235446 0.0 1017511
11:00+19n2643100 0.0 10152251
14:00+20wnw584422 0.1 10141976
17:00+16w478325 1.4 1015232
20:00+14e489099 0.8 1014205